Wetterdaten: Woche 14.05.18 - 20.05.18 (KW20)
Datum Zeit Temp. A. Pool Temp. Feuchte A. Luftdruck Regen Wind Richtung Sonnenschein ET UV Solar Taupunkt Windchill Windben Empfang
14.05.2018 00:00 17,6 C 20,6 C 69 % 1003,9 hPa 0,0 l/m 16,4 km/h (3 Bft) O 0,00 h 0,000 mm 0,0 UV-I 0 W/m 11,8 C 14,0 C 21,5 km/h (4 Bft) 96,67 %
14.05.2018 01:00 17,4 C 20,1 C 69 % 1003,6 hPa 0,0 l/m 15,8 km/h (3 Bft) O 0,00 h 0,076 mm 0,0 UV-I 0 W/m 11,6 C 13,8 C 21,4 km/h (4 Bft) 96,99 %
14.05.2018 02:00 17,3 C 20,0 C 67 % 1003,6 hPa 0,0 l/m 12,7 km/h (3 Bft) O 0,00 h 0,076 mm 0,0 UV-I 0 W/m 11,2 C 14,8 C 17,4 km/h (3 Bft) 97,36 %
14.05.2018 03:00 16,4 C 20,0 C 69 % 1003,7 hPa 0,0 l/m 9,5 km/h (2 Bft) O 0,00 h 0,051 mm 0,0 UV-I 0 W/m 10,6 C 14,9 C 13,3 km/h (3 Bft) 98,42 %
14.05.2018 04:00 15,8 C 20,0 C 70 % 1003,7 hPa 0,0 l/m 9,9 km/h (2 Bft) O 0,00 h 0,051 mm 0,0 UV-I 0 W/m 10,4 C 14,1 C 13,6 km/h (3 Bft) 98,42 %
14.05.2018 05:00 15,3 C 20,0 C 74 % 1003,9 hPa 0,0 l/m 7,4 km/h (2 Bft) O 0,10 h 0,051 mm 0,0 UV-I 12 W/m 10,7 C 14,6 C 10,8 km/h (2 Bft) 97,32 %
14.05.2018 06:00 15,8 C 19,4 C 76 % 1004,2 hPa 0,0 l/m 7,3 km/h (2 Bft) O 0,00 h 0,025 mm 0,0 UV-I 53 W/m 11,6 C 15,0 C 10,8 km/h (2 Bft) 97,04 %
14.05.2018 07:00 16,3 C 19,4 C 76 % 1004,4 hPa 0,0 l/m 8,2 km/h (2 Bft) O 0,00 h 0,051 mm 0,5 UV-I 136 W/m 12,2 C 15,4 C 12,0 km/h (2 Bft) 98,90 %
14.05.2018 08:00 17,2 C 19,4 C 75 % 1004,7 hPa 0,0 l/m 10,6 km/h (2 Bft) O 0,00 h 0,102 mm 0,7 UV-I 217 W/m 12,6 C 15,3 C 14,7 km/h (3 Bft) 97,93 %
14.05.2018 09:00 17,7 C 19,4 C 74 % 1004,8 hPa 0,0 l/m 12,6 km/h (3 Bft) O 0,00 h 0,152 mm 1,0 UV-I 256 W/m 13,0 C 15,3 C 17,0 km/h (3 Bft) 97,63 %
14.05.2018 10:00 18,7 C 19,4 C 70 % 1005,1 hPa 0,0 l/m 15,8 km/h (3 Bft) O 0,52 h 0,178 mm 1,8 UV-I 409 W/m 13,1 C 15,6 C 21,6 km/h (4 Bft) 96,24 %
14.05.2018 11:00 19,8 C 19,8 C 66 % 1005,0 hPa 0,0 l/m 20,2 km/h (4 Bft) O 0,77 h 0,305 mm 3,0 UV-I 595 W/m 13,4 C 16,0 C 27,1 km/h (4 Bft) 99,09 %
14.05.2018 12:00 20,8 C 20,0 C 62 % 1004,9 hPa 0,0 l/m 25,4 km/h (4 Bft) O-NO 1,00 h 0,457 mm 3,5 UV-I 633 W/m 13,2 C 16,5 C 33,6 km/h (5 Bft) 97,93 %
14.05.2018 13:00 21,0 C 20,0 C 56 % 1005,0 hPa 0,0 l/m 25,7 km/h (4 Bft) O-NO 1,00 h 0,508 mm 3,2 UV-I 606 W/m 12,0 C 16,6 C 33,9 km/h (5 Bft) 99,13 %
14.05.2018 14:00 21,1 C 20,0 C 56 % 1004,9 hPa 0,0 l/m 30,5 km/h (5 Bft) O-NO 0,92 h 0,508 mm 3,5 UV-I 718 W/m 12,0 C 16,3 C 41,7 km/h (6 Bft) 95,92 %
14.05.2018 15:00 20,5 C 20,1 C 54 % 1004,7 hPa 0,0 l/m 29,4 km/h (5 Bft) O-NO 0,80 h 0,609 mm 2,3 UV-I 503 W/m 10,9 C 15,5 C 40,2 km/h (6 Bft) 98,11 %
14.05.2018 16:00 19,9 C 20,0 C 54 % 1004,8 hPa 0,0 l/m 27,9 km/h (4 Bft) O-NO 0,53 h 0,483 mm 1,5 UV-I 365 W/m 10,3 C 14,9 C 38,8 km/h (5 Bft) 97,69 %
14.05.2018 17:00 19,5 C 20,0 C 53 % 1005,1 hPa 0,0 l/m 25,3 km/h (4 Bft) O-NO 0,50 h 0,381 mm 0,8 UV-I 265 W/m 9,8 C 14,7 C 34,6 km/h (5 Bft) 99,24 %
14.05.2018 18:00 18,6 C 20,0 C 56 % 1005,1 hPa 0,0 l/m 23,3 km/h (4 Bft) O 0,00 h 0,305 mm 0,5 UV-I 144 W/m 9,6 C 13,8 C 30,5 km/h (5 Bft) 96,41 %
14.05.2018 19:00 17,8 C 19,7 C 59 % 1005,1 hPa 0,0 l/m 23,5 km/h (4 Bft) O-NO 0,00 h 0,228 mm 0,0 UV-I 64 W/m 9,7 C 12,7 C 31,4 km/h (5 Bft) 97,72 %
14.05.2018 20:00 17,0 C 19,4 C 62 % 1005,5 hPa 0,0 l/m 20,3 km/h (4 Bft) O-NO 0,22 h 0,153 mm 0,0 UV-I 18 W/m 9,6 C 12,3 C 26,5 km/h (4 Bft) 97,76 %
14.05.2018 21:00 16,0 C 19,4 C 66 % 1006,0 hPa 0,0 l/m 16,8 km/h (3 Bft) O-NO 0,00 h 0,101 mm 0,0 UV-I 0 W/m 9,5 C 11,9 C 22,4 km/h (4 Bft) 98,90 %
14.05.2018 22:00 15,6 C 19,0 C 69 % 1006,3 hPa 0,0 l/m 18,5 km/h (3 Bft) O-NO 0,00 h 0,077 mm 0,0 UV-I 0 W/m 9,9 C 10,9 C 24,4 km/h (4 Bft) 96,62 %
14.05.2018 23:00 15,3 C 18,9 C 71 % 1006,3 hPa 0,0 l/m 17,1 km/h (3 Bft) O-NO 0,00 h 0,076 mm 0,0 UV-I 0 W/m 10,0 C 10,9 C 22,8 km/h (4 Bft) 96,93 %
15.05.2018 00:00 14,9 C 18,9 C 72 % 1006,2 hPa 0,0 l/m 15,9 km/h (3 Bft) O-NO 0,00 h 0,000 mm 0,0 UV-I 0 W/m 9,8 C 10,8 C 21,1 km/h (4 Bft) 98,25 %
15.05.2018 01:00 14,6 C 18,9 C 72 % 1006,2 hPa 0,0 l/m 15,9 km/h (3 Bft) O 0,00 h 0,051 mm 0,0 UV-I 0 W/m 9,6 C 10,4 C 21,4 km/h (4 Bft) 98,48 %
15.05.2018 02:00 14,2 C 18,6 C 73 % 1006,1 hPa 0,0 l/m 18,4 km/h (3 Bft) O 0,00 h 0,051 mm 0,0 UV-I 0 W/m 9,5 C 9,2 C 24,7 km/h (4 Bft) 96,96 %
15.05.2018 03:00 13,2 C 18,3 C 80 % 1006,0 hPa 0,0 l/m 19,3 km/h (3 Bft) O 0,00 h 0,050 mm 0,0 UV-I 0 W/m 9,8 C 7,7 C 25,4 km/h (4 Bft) 97,43 %
15.05.2018 04:00 12,8 C 18,3 C 80 % 1005,8 hPa 0,0 l/m 19,1 km/h (3 Bft) O 0,00 h 0,051 mm 0,0 UV-I 0 W/m 9,5 C 7,2 C 25,3 km/h (4 Bft) 98,61 %
15.05.2018 05:00 12,0 C 17,9 C 86 % 1006,1 hPa 0,2 l/m 19,8 km/h (4 Bft) O-NO 0,00 h 0,051 mm 0,0 UV-I 6 W/m 9,6 C 5,9 C 26,5 km/h (4 Bft) 98,35 %
15.05.2018 06:00 11,4 C 17,8 C 85 % 1006,8 hPa 0,4 l/m 18,4 km/h (3 Bft) O-NO 0,00 h 0,025 mm 0,0 UV-I 15 W/m 9,0 C 5,7 C 25,2 km/h (4 Bft) 97,00 %
15.05.2018 07:00 10,9 C 17,8 C 88 % 1007,2 hPa 0,6 l/m 21,6 km/h (4 Bft) O-NO 0,00 h 0,026 mm 0,0 UV-I 51 W/m 8,9 C 4,0 C 29,8 km/h (5 Bft) 97,73 %
15.05.2018 08:00 10,6 C 17,3 C 89 % 1008,0 hPa 0,8 l/m 15,3 km/h (3 Bft) O-NO 0,00 h 0,051 mm 0,0 UV-I 101 W/m 8,9 C 5,9 C 21,3 km/h (4 Bft) 98,49 %
15.05.2018 09:00 10,8 C 17,2 C 92 % 1008,4 hPa 0,4 l/m 11,7 km/h (2 Bft) NO 0,00 h 0,076 mm 0,7 UV-I 167 W/m 9,5 C 7,7 C 16,2 km/h (3 Bft) 98,59 %
15.05.2018 10:00 11,7 C 17,2 C 89 % 1008,8 hPa 0,0 l/m 12,7 km/h (3 Bft) NO 0,00 h 0,101 mm 1,3 UV-I 277 W/m 9,9 C 8,2 C 16,9 km/h (3 Bft) 96,83 %
15.05.2018 11:00 12,3 C 17,2 C 83 % 1009,2 hPa 0,0 l/m 11,6 km/h (2 Bft) NO 0,00 h 0,153 mm 1,0 UV-I 200 W/m 9,6 C 9,5 C 16,0 km/h (3 Bft) 95,73 %
15.05.2018 12:00 12,4 C 17,2 C 83 % 1009,5 hPa 0,0 l/m 10,7 km/h (2 Bft) O-NO 0,00 h 0,127 mm 1,1 UV-I 214 W/m 9,6 C 10,0 C 15,1 km/h (3 Bft) 98,91 %
15.05.2018 13:00 12,2 C 17,5 C 86 % 1009,9 hPa 0,2 l/m 14,4 km/h (3 Bft) O-NO 0,00 h 0,127 mm 1,9 UV-I 373 W/m 9,9 C 8,1 C 19,4 km/h (3 Bft) 97,89 %
15.05.2018 14:00 12,2 C 17,8 C 85 % 1010,0 hPa 0,0 l/m 12,5 km/h (3 Bft) O-NO 0,00 h 0,203 mm 1,6 UV-I 314 W/m 9,8 C 8,9 C 17,0 km/h (3 Bft) 98,50 %
15.05.2018 15:00 11,7 C 17,8 C 87 % 1010,2 hPa 0,0 l/m 10,7 km/h (2 Bft) O 0,00 h 0,178 mm 1,1 UV-I 239 W/m 9,7 C 9,2 C 14,7 km/h (3 Bft) 95,52 %
15.05.2018 16:00 11,9 C 17,8 C 86 % 1010,2 hPa 0,0 l/m 8,7 km/h (2 Bft) SO 0,00 h 0,127 mm 0,9 UV-I 240 W/m 9,7 C 10,4 C 12,9 km/h (3 Bft) 98,72 %
15.05.2018 17:00 11,8 C 17,8 C 85 % 1010,1 hPa 0,2 l/m 5,8 km/h (2 Bft) SO 0,00 h 0,127 mm 0,6 UV-I 186 W/m 9,3 C 11,3 C 9,0 km/h (2 Bft) 98,25 %
15.05.2018 18:00 12,0 C 17,8 C 85 % 1009,9 hPa 0,0 l/m 2,4 km/h (1 Bft) S-SW 0,00 h 0,101 mm 0,0 UV-I 109 W/m 9,5 C 11,9 C 3,9 km/h (1 Bft) 98,53 %
15.05.2018 19:00 12,0 C 17,8 C 83 % 1009,6 hPa 0,0 l/m 1,2 km/h (1 Bft) S-SW 0,18 h 0,051 mm 0,0 UV-I 68 W/m 9,2 C 12,0 C 2,2 km/h (1 Bft) 96,62 %
15.05.2018 20:00 11,4 C 17,6 C 88 % 1009,6 hPa 0,0 l/m 1,0 km/h (0 Bft) SW 0,42 h 0,026 mm 0,0 UV-I 20 W/m 9,4 C 11,4 C 1,7 km/h (1 Bft) 97,29 %
15.05.2018 21:00 10,0 C 17,2 C 92 % 1010,2 hPa 0,0 l/m 1,2 km/h (1 Bft) SW 0,00 h 0,000 mm 0,0 UV-I 0 W/m 8,8 C 10,0 C 1,6 km/h (1 Bft) 97,66 %
15.05.2018 22:00 9,6 C 17,2 C 94 % 1010,3 hPa 0,0 l/m 1,1 km/h (1 Bft) SW 0,00 h 0,000 mm 0,0 UV-I 0 W/m 8,6 C 9,6 C 1,8 km/h (1 Bft) 97,97 %
15.05.2018 23:00 9,9 C 17,2 C 94 % 1010,6 hPa 0,0 l/m 0,3 km/h (0 Bft) SW 0,00 h 0,000 mm 0,0 UV-I 0 W/m 9,0 C 9,9 C 0,7 km/h (0 Bft) 96,17 %
16.05.2018 00:00 10,1 C 17,2 C 94 % 1010,5 hPa 0,0 l/m 4,0 km/h (1 Bft) SW 0,00 h 0,000 mm 0,0 UV-I 0 W/m 9,1 C 10,1 C 5,9 km/h (2 Bft) 97,01 %
16.05.2018 01:00 10,1 C 17,2 C 92 % 1010,3 hPa 0,0 l/m 5,4 km/h (1 Bft) S-SW 0,00 h 0,000 mm 0,0 UV-I 0 W/m 8,9 C 9,8 C 8,1 km/h (2 Bft) 98,17 %
16.05.2018 02:00 10,3 C 17,1 C 92 % 1010,3 hPa 0,0 l/m 5,4 km/h (1 Bft) SW 0,00 h 0,000 mm 0,0 UV-I 0 W/m 9,0 C 10,1 C 7,7 km/h (2 Bft) 96,09 %
16.05.2018 03:00 10,6 C 16,7 C 92 % 1010,2 hPa 0,0 l/m 8,1 km/h (2 Bft) W 0,00 h 0,000 mm 0,0 UV-I 0 W/m 9,3 C 9,4 C 11,2 km/h (2 Bft) 96,86 %
16.05.2018 04:00 10,5 C 16,7 C 92 % 1010,2 hPa 0,0 l/m 7,9 km/h (2 Bft) W-SW 0,00 h 0,000 mm 0,0 UV-I 0 W/m 9,3 C 9,4 C 11,4 km/h (2 Bft) 98,80 %
16.05.2018 05:00 10,6 C 16,7 C 91 % 1010,1 hPa 0,0 l/m 9,4 km/h (2 Bft) W-SW 0,00 h 0,000 mm 0,0 UV-I 5 W/m 9,2 C 8,7 C 13,7 km/h (3 Bft) 98,81 %
16.05.2018 06:00 10,9 C 16,7 C 89 % 1010,2 hPa 0,0 l/m 9,3 km/h (2 Bft) W-SW 0,00 h 0,000 mm 0,0 UV-I 10 W/m 9,2 C 9,0 C 13,4 km/h (3 Bft) 96,86 %
16.05.2018 07:00 10,6 C 16,7 C 92 % 1010,5 hPa 2,4 l/m 9,2 km/h (2 Bft) W-SW 0,00 h 0,025 mm 0,0 UV-I 46 W/m 9,4 C 8,8 C 13,2 km/h (3 Bft) 97,98 %
16.05.2018 08:00 10,8 C 16,7 C 95 % 1010,4 hPa 1,0 l/m 8,9 km/h (2 Bft) W-SW 0,00 h 0,026 mm 0,4 UV-I 110 W/m 9,9 C 9,1 C 12,8 km/h (3 Bft) 98,49 %
16.05.2018 09:00 11,4 C 16,7 C 93 % 1010,7 hPa 0,0 l/m 10,1 km/h (2 Bft) W-SW 0,00 h 0,051 mm 0,8 UV-I 189 W/m 10,4 C 9,2 C 14,6 km/h (3 Bft) 99,14 %
16.05.2018 10:00 11,4 C 16,7 C 93 % 1010,9 hPa 0,2 l/m 12,1 km/h (2 Bft) SW 0,00 h 0,101 mm 0,7 UV-I 133 W/m 10,3 C 8,3 C 16,9 km/h (3 Bft) 96,49 %
16.05.2018 11:00 12,4 C 16,7 C 91 % 1011,0 hPa 0,0 l/m 13,0 km/h (3 Bft) SW 0,08 h 0,076 mm 1,5 UV-I 302 W/m 11,0 C 9,1 C 18,3 km/h (3 Bft) 98,07 %
16.05.2018 12:00 12,6 C 16,7 C 90 % 1011,2 hPa 0,2 l/m 16,2 km/h (3 Bft) SW 0,00 h 0,153 mm 1,4 UV-I 266 W/m 11,1 C 8,0 C 23,2 km/h (4 Bft) 98,87 %
16.05.2018 13:00 11,9 C 16,7 C 93 % 1011,4 hPa 1,0 l/m 13,6 km/h (3 Bft) SW 0,00 h 0,152 mm 1,1 UV-I 199 W/m 10,8 C 8,3 C 19,0 km/h (3 Bft) 98,60 %
16.05.2018 14:00 12,5 C 16,7 C 90 % 1011,4 hPa 0,0 l/m 9,9 km/h (2 Bft) W-SW 0,00 h 0,102 mm 1,0 UV-I 168 W/m 10,9 C 10,6 C 14,4 km/h (3 Bft) 96,28 %
16.05.2018 15:00 13,4 C 16,7 C 86 % 1011,4 hPa 0,0 l/m 5,2 km/h (1 Bft) W 0,00 h 0,101 mm 0,8 UV-I 174 W/m 11,1 C 12,8 C 7,7 km/h (2 Bft) 98,35 %
16.05.2018 16:00 13,5 C 16,7 C 83 % 1011,5 hPa 0,0 l/m 14,7 km/h (3 Bft) W-SW 0,10 h 0,102 mm 0,7 UV-I 187 W/m 10,6 C 9,7 C 21,5 km/h (4 Bft) 98,83 %
16.05.2018 17:00 13,4 C 16,7 C 81 % 1011,4 hPa 0,0 l/m 17,6 km/h (3 Bft) W-SW 0,00 h 0,127 mm 0,8 UV-I 143 W/m 10,2 C 8,5 C 24,7 km/h (4 Bft) 98,60 %
16.05.2018 18:00 13,5 C 16,7 C 79 % 1011,2 hPa 0,0 l/m 16,6 km/h (3 Bft) W 0,17 h 0,102 mm 0,4 UV-I 154 W/m 10,0 C 9,0 C 23,2 km/h (4 Bft) 96,71 %
16.05.2018 19:00 12,9 C 16,7 C 81 % 1011,4 hPa 0,0 l/m 12,9 km/h (3 Bft) W 0,00 h 0,101 mm 0,0 UV-I 33 W/m 9,7 C 9,6 C 18,3 km/h (3 Bft) 97,98 %
16.05.2018 20:00 12,5 C 16,7 C 80 % 1011,9 hPa 0,0 l/m 13,0 km/h (3 Bft) W 0,00 h 0,051 mm 0,0 UV-I 8 W/m 9,2 C 9,2 C 18,5 km/h (3 Bft) 98,93 %
16.05.2018 21:00 11,9 C 16,7 C 83 % 1012,4 hPa 0,2 l/m 13,0 km/h (3 Bft) W 0,00 h 0,025 mm 0,0 UV-I 0 W/m 9,2 C 8,4 C 18,2 km/h (3 Bft) 98,43 %
16.05.2018 22:00 11,5 C 16,6 C 87 % 1012,5 hPa 0,0 l/m 10,2 km/h (2 Bft) W-SW 0,00 h 0,026 mm 0,0 UV-I 0 W/m 9,4 C 9,2 C 14,5 km/h (3 Bft) 96,60 %
16.05.2018 23:00 11,6 C 16,1 C 87 % 1012,9 hPa 0,0 l/m 12,7 km/h (3 Bft) W-SW 0,00 h 0,025 mm 0,0 UV-I 0 W/m 9,6 C 8,1 C 17,9 km/h (3 Bft) 98,78 %
17.05.2018 00:00 11,6 C 16,1 C 87 % 1013,0 hPa 0,0 l/m 13,2 km/h (3 Bft) W-SW 0,00 h 0,000 mm 0,0 UV-I 0 W/m 9,5 C 7,9 C 18,9 km/h (3 Bft) 98,25 %
17.05.2018 01:00 11,5 C 16,1 C 87 % 1012,9 hPa 0,0 l/m 11,1 km/h (2 Bft) W-SW 0,00 h 0,025 mm 0,0 UV-I 0 W/m 9,4 C 8,8 C 16,0 km/h (3 Bft) 98,73 %
17.05.2018 02:00 11,4 C 16,1 C 89 % 1012,6 hPa 0,0 l/m 10,6 km/h (2 Bft) W 0,00 h 0,026 mm 0,0 UV-I 0 W/m 9,6 C 8,8 C 15,0 km/h (3 Bft) 96,33 %
17.05.2018 03:00 11,4 C 16,1 C 89 % 1012,5 hPa 0,0 l/m 9,7 km/h (2 Bft) W 0,00 h 0,025 mm 0,0 UV-I 0 W/m 9,7 C 9,4 C 13,9 km/h (3 Bft) 98,74 %
17.05.2018 04:00 11,1 C 16,1 C 90 % 1012,6 hPa 0,0 l/m 10,2 km/h (2 Bft) W-SW 0,00 h 0,026 mm 0,0 UV-I 0 W/m 9,5 C 8,7 C 13,8 km/h (3 Bft) 98,21 %
17.05.2018 05:00 11,0 C 16,0 C 91 % 1012,6 hPa 0,0 l/m 13,1 km/h (3 Bft) W-SW 0,00 h 0,025 mm 0,0 UV-I 12 W/m 9,5 C 7,2 C 18,0 km/h (3 Bft) 98,98 %
17.05.2018 06:00 11,3 C 15,6 C 90 % 1012,9 hPa 0,0 l/m 11,9 km/h (2 Bft) W-SW 0,00 h 0,025 mm 0,0 UV-I 57 W/m 9,7 C 8,1 C 16,8 km/h (3 Bft) 95,73 %
17.05.2018 07:00 11,7 C 15,6 C 88 % 1013,2 hPa 0,0 l/m 13,5 km/h (3 Bft) W-SW 0,00 h 0,051 mm 0,0 UV-I 48 W/m 9,7 C 7,9 C 19,0 km/h (3 Bft) 98,88 %
17.05.2018 08:00 11,9 C 15,6 C 87 % 1013,3 hPa 0,0 l/m 13,8 km/h (3 Bft) W-SW 0,00 h 0,051 mm 0,0 UV-I 56 W/m 9,8 C 8,0 C 19,2 km/h (3 Bft) 98,68 %
17.05.2018 09:00 12,7 C 15,6 C 84 % 1013,5 hPa 0,0 l/m 14,4 km/h (3 Bft) W 0,00 h 0,051 mm 0,6 UV-I 127 W/m 10,1 C 8,7 C 19,7 km/h (3 Bft) 98,22 %
17.05.2018 10:00 13,7 C 15,6 C 81 % 1013,8 hPa 0,0 l/m 14,2 km/h (3 Bft) W 0,00 h 0,101 mm 1,0 UV-I 218 W/m 10,4 C 10,0 C 20,1 km/h (4 Bft) 96,17 %
17.05.2018 11:00 13,9 C 15,6 C 79 % 1014,0 hPa 0,0 l/m 16,1 km/h (3 Bft) W 0,00 h 0,153 mm 0,6 UV-I 119 W/m 10,3 C 9,6 C 22,6 km/h (4 Bft) 98,16 %
17.05.2018 12:00 14,3 C 15,6 C 79 % 1014,1 hPa 0,0 l/m 15,2 km/h (3 Bft) W 0,00 h 0,101 mm 1,1 UV-I 208 W/m 10,6 C 10,3 C 20,5 km/h (4 Bft) 98,53 %
17.05.2018 13:00 14,1 C 15,6 C 83 % 1014,3 hPa 0,0 l/m 8,5 km/h (2 Bft) W 0,00 h 0,153 mm 0,8 UV-I 160 W/m 11,2 C 12,9 C 13,3 km/h (3 Bft) 98,57 %
17.05.2018 14:00 14,4 C 15,8 C 83 % 1014,4 hPa 0,0 l/m 9,7 km/h (2 Bft) W 0,00 h 0,101 mm 1,3 UV-I 239 W/m 11,6 C 12,6 C 14,6 km/h (3 Bft) 96,76 %
17.05.2018 15:00 15,0 C 16,1 C 81 % 1014,1 hPa 0,2 l/m 10,8 km/h (2 Bft) W-SW 0,00 h 0,153 mm 1,3 UV-I 272 W/m 11,7 C 12,8 C 15,5 km/h (3 Bft) 98,07 %
17.05.2018 16:00 15,4 C 16,1 C 78 % 1013,9 hPa 0,0 l/m 11,4 km/h (2 Bft) W-SW 0,00 h 0,178 mm 0,9 UV-I 224 W/m 11,6 C 13,0 C 15,8 km/h (3 Bft) 98,96 %
17.05.2018 17:00 15,7 C 16,1 C 77 % 1013,8 hPa 0,0 l/m 12,3 km/h (3 Bft) W-SW 0,00 h 0,152 mm 0,6 UV-I 173 W/m 11,7 C 13,1 C 17,3 km/h (3 Bft) 98,56 %
17.05.2018 18:00 15,3 C 16,1 C 78 % 1014,1 hPa 0,0 l/m 16,7 km/h (3 Bft) SW 0,00 h 0,127 mm 0,0 UV-I 84 W/m 11,5 C 11,0 C 23,0 km/h (4 Bft) 97,24 %
17.05.2018 19:00 14,2 C 16,1 C 82 % 1014,4 hPa 0,0 l/m 13,3 km/h (3 Bft) SW 0,00 h 0,102 mm 0,0 UV-I 52 W/m 11,1 C 10,9 C 18,8 km/h (3 Bft) 97,27 %
17.05.2018 20:00 13,9 C 16,1 C 84 % 1014,8 hPa 0,0 l/m 16,8 km/h (3 Bft) W-SW 0,00 h 0,050 mm 0,0 UV-I 13 W/m 11,2 C 9,4 C 23,2 km/h (4 Bft) 98,68 %
17.05.2018 21:00 13,2 C 16,1 C 88 % 1015,4 hPa 0,2 l/m 13,7 km/h (3 Bft) W-SW 0,00 h 0,026 mm 0,0 UV-I 0 W/m 11,2 C 9,5 C 19,1 km/h (3 Bft) 97,98 %
17.05.2018 22:00 12,8 C 15,7 C 90 % 1015,8 hPa 0,0 l/m 13,7 km/h (3 Bft) W-SW 0,00 h 0,025 mm 0,0 UV-I 0 W/m 11,2 C 9,1 C 18,9 km/h (3 Bft) 97,03 %
17.05.2018 23:00 12,8 C 15,6 C 90 % 1015,9 hPa 0,0 l/m 11,5 km/h (2 Bft) W 0,00 h 0,026 mm 0,0 UV-I 0 W/m 11,2 C 10,1 C 16,0 km/h (3 Bft) 97,88 %
18.05.2018 00:00 12,7 C 15,6 C 90 % 1016,1 hPa 0,0 l/m 10,0 km/h (2 Bft) W 0,00 h 0,000 mm 0,0 UV-I 0 W/m 11,1 C 10,7 C 13,9 km/h (3 Bft) 98,67 %
18.05.2018 01:00 12,3 C 15,6 C 90 % 1016,0 hPa 0,0 l/m 11,5 km/h (2 Bft) W-SW 0,00 h 0,025 mm 0,0 UV-I 0 W/m 10,8 C 9,5 C 15,6 km/h (3 Bft) 98,51 %
18.05.2018 02:00 12,2 C 15,6 C 91 % 1016,2 hPa 0,0 l/m 9,5 km/h (2 Bft) W-SW 0,00 h 0,026 mm 0,0 UV-I 0 W/m 10,7 C 10,3 C 13,6 km/h (3 Bft) 96,56 %
18.05.2018 03:00 11,5 C 15,6 C 92 % 1016,4 hPa 0,0 l/m 10,6 km/h (2 Bft) W-SW 0,00 h 0,025 mm 0,0 UV-I 0 W/m 10,3 C 9,0 C 14,8 km/h (3 Bft) 98,20 %
18.05.2018 04:00 11,7 C 15,6 C 92 % 1016,5 hPa 0,0 l/m 8,1 km/h (2 Bft) W-SW 0,00 h 0,000 mm 0,0 UV-I 0 W/m 10,5 C 10,6 C 11,5 km/h (2 Bft) 98,55 %
18.05.2018 05:00 11,9 C 15,6 C 92 % 1016,7 hPa 0,0 l/m 6,4 km/h (2 Bft) W-SW 0,00 h 0,000 mm 0,0 UV-I 11 W/m 10,7 C 11,6 C 9,1 km/h (2 Bft) 98,72 %
18.05.2018 06:00 12,3 C 15,6 C 92 % 1017,0 hPa 0,0 l/m 6,3 km/h (2 Bft) W-SW 0,00 h 0,000 mm 0,0 UV-I 22 W/m 11,0 C 12,0 C 9,4 km/h (2 Bft) 96,31 %
18.05.2018 07:00 12,6 C 15,6 C 92 % 1017,2 hPa 0,0 l/m 6,5 km/h (2 Bft) W-SW 0,00 h 0,026 mm 0,0 UV-I 59 W/m 11,3 C 12,3 C 9,6 km/h (2 Bft) 98,72 %
18.05.2018 08:00 13,5 C 15,6 C 89 % 1017,3 hPa 0,0 l/m 9,2 km/h (2 Bft) W 0,00 h 0,025 mm 0,7 UV-I 192 W/m 11,8 C 12,0 C 12,9 km/h (3 Bft) 98,84 %
18.05.2018 09:00 14,1 C 15,6 C 86 % 1017,5 hPa 0,0 l/m 12,3 km/h (3 Bft) W 0,00 h 0,102 mm 0,6 UV-I 150 W/m 11,8 C 11,2 C 17,2 km/h (3 Bft) 98,36 %
18.05.2018 10:00 14,4 C 15,6 C 84 % 1017,7 hPa 0,0 l/m 10,0 km/h (2 Bft) W 0,00 h 0,101 mm 0,9 UV-I 180 W/m 11,7 C 12,5 C 14,7 km/h (3 Bft) 96,19 %
18.05.2018 11:00 16,1 C 15,6 C 78 % 1017,9 hPa 0,0 l/m 12,9 km/h (3 Bft) W-SW 0,62 h 0,102 mm 2,9 UV-I 646 W/m 12,2 C 13,3 C 18,3 km/h (3 Bft) 97,33 %
18.05.2018 12:00 17,4 C 16,0 C 71 % 1017,8 hPa 0,0 l/m 13,5 km/h (3 Bft) W-SW 0,77 h 0,355 mm 3,9 UV-I 770 W/m 12,1 C 14,7 C 19,5 km/h (3 Bft) 98,58 %
18.05.2018 13:00 18,6 C 16,5 C 67 % 1017,3 hPa 0,0 l/m 11,8 km/h (2 Bft) W-SW 0,85 h 0,483 mm 3,9 UV-I 832 W/m 12,3 C 16,6 C 17,5 km/h (3 Bft) 98,06 %
18.05.2018 14:00 19,0 C 16,7 C 64 % 1016,7 hPa 0,0 l/m 9,2 km/h (2 Bft) W-SW 0,37 h 0,508 mm 2,6 UV-I 525 W/m 12,0 C 17,8 C 14,2 km/h (3 Bft) 98,70 %
18.05.2018 15:00 19,9 C 16,8 C 60 % 1016,2 hPa 0,0 l/m 6,0 km/h (2 Bft) W-SW 0,75 h 0,330 mm 2,6 UV-I 627 W/m 12,0 C 19,7 C 10,2 km/h (2 Bft) 95,20 %
18.05.2018 16:00 20,3 C 17,2 C 59 % 1015,8 hPa 0,0 l/m 6,4 km/h (2 Bft) N 1,00 h 0,381 mm 2,0 UV-I 572 W/m 12,0 C 19,9 C 10,3 km/h (2 Bft) 98,44 %
18.05.2018 17:00 17,0 C 17,2 C 69 % 1016,0 hPa 1,4 l/m 13,6 km/h (3 Bft) N-NO 0,05 h 0,356 mm 0,9 UV-I 117 W/m 11,1 C 14,2 C 17,8 km/h (3 Bft) 97,97 %
18.05.2018 18:00 14,6 C 17,2 C 84 % 1015,8 hPa 0,0 l/m 6,1 km/h (2 Bft) NO 0,08 h 0,127 mm 0,0 UV-I 136 W/m 11,9 C 14,0 C 8,3 km/h (2 Bft) 99,01 %
18.05.2018 19:00 15,3 C 17,2 C 80 % 1016,0 hPa 0,0 l/m 5,5 km/h (1 Bft) S 0,85 h 0,076 mm 0,0 UV-I 107 W/m 11,9 C 15,0 C 8,0 km/h (2 Bft) 97,38 %
18.05.2018 20:00 14,3 C 17,2 C 81 % 1016,4 hPa 0,0 l/m 5,2 km/h (1 Bft) S-SW 0,48 h 0,076 mm 0,0 UV-I 26 W/m 11,0 C 14,0 C 7,8 km/h (2 Bft) 97,26 %
18.05.2018 21:00 13,3 C 17,2 C 84 % 1016,9 hPa 0,0 l/m 5,3 km/h (1 Bft) S-SW 0,00 h 0,026 mm 0,0 UV-I 0 W/m 10,7 C 13,2 C 7,0 km/h (2 Bft) 97,71 %
18.05.2018 22:00 12,7 C 17,1 C 87 % 1017,4 hPa 0,0 l/m 2,6 km/h (1 Bft) SW 0,00 h 0,025 mm 0,0 UV-I 0 W/m 10,5 C 12,6 C 3,9 km/h (1 Bft) 99,29 %
18.05.2018 23:00 11,7 C 16,7 C 91 % 1017,4 hPa 0,0 l/m 2,0 km/h (1 Bft) S-SW 0,00 h 0,000 mm 0,0 UV-I 0 W/m 10,2 C 11,7 C 3,1 km/h (1 Bft) 96,45 %
19.05.2018 00:00 11,3 C 16,7 C 92 % 1017,6 hPa 0,0 l/m 1,9 km/h (1 Bft) O-NO 0,00 h 0,000 mm 0,0 UV-I 0 W/m 10,1 C 11,3 C 2,7 km/h (1 Bft) 97,30 %
19.05.2018 01:00 10,9 C 16,7 C 93 % 1017,2 hPa 0,0 l/m 3,4 km/h (1 Bft) S-SW 0,00 h 0,000 mm 0,0 UV-I 0 W/m 9,8 C 10,9 C 4,7 km/h (1 Bft) 97,55 %
19.05.2018 02:00 11,3 C 16,7 C 92 % 1017,1 hPa 0,0 l/m 3,1 km/h (1 Bft) SW 0,00 h 0,000 mm 0,0 UV-I 0 W/m 10,0 C 11,3 C 4,4 km/h (1 Bft) 98,87 %
19.05.2018 03:00 11,2 C 16,7 C 92 % 1017,0 hPa 0,0 l/m 3,5 km/h (1 Bft) O-SO 0,00 h 0,000 mm 0,0 UV-I 0 W/m 10,0 C 11,2 C 5,5 km/h (1 Bft) 96,08 %
19.05.2018 04:00 11,0 C 16,7 C 94 % 1016,7 hPa 0,0 l/m 4,5 km/h (1 Bft) S-SO 0,00 h 0,000 mm 0,0 UV-I 0 W/m 10,0 C 10,8 C 7,6 km/h (2 Bft) 98,32 %
19.05.2018 05:00 10,8 C 16,7 C 94 % 1016,8 hPa 0,0 l/m 2,4 km/h (1 Bft) S 0,42 h 0,000 mm 0,0 UV-I 23 W/m 9,9 C 10,8 C 4,9 km/h (1 Bft) 99,20 %
19.05.2018 06:00 11,0 C 16,7 C 94 % 1017,2 hPa 0,0 l/m 1,6 km/h (1 Bft) O-NO 0,67 h 0,025 mm 0,0 UV-I 91 W/m 10,2 C 11,1 C 3,6 km/h (1 Bft) 97,15 %
19.05.2018 07:00 12,3 C 16,7 C 92 % 1017,5 hPa 0,0 l/m 3,1 km/h (1 Bft) O 0,83 h 0,051 mm 0,6 UV-I 261 W/m 11,0 C 12,3 C 6,0 km/h (2 Bft) 98,83 %
19.05.2018 08:00 14,2 C 16,7 C 85 % 1017,8 hPa 0,0 l/m 8,7 km/h (2 Bft) O 1,00 h 0,127 mm 1,0 UV-I 427 W/m 11,7 C 12,9 C 14,1 km/h (3 Bft) 98,03 %
19.05.2018 09:00 16,0 C 16,7 C 79 % 1017,8 hPa 0,0 l/m 9,9 km/h (2 Bft) NO 1,07 h 0,229 mm 2,0 UV-I 596 W/m 12,3 C 14,3 C 13,7 km/h (3 Bft) 96,85 %
19.05.2018 10:00 17,2 C 16,9 C 75 % 1017,9 hPa 0,0 l/m 9,6 km/h (2 Bft) O 1,00 h 0,330 mm 2,9 UV-I 707 W/m 12,7 C 15,8 C 13,7 km/h (3 Bft) 96,86 %
19.05.2018 11:00 18,9 C 17,2 C 69 % 1017,7 hPa 0,0 l/m 11,1 km/h (2 Bft) NO 1,00 h 0,406 mm 3,9 UV-I 802 W/m 13,0 C 17,1 C 15,3 km/h (3 Bft) 98,32 %
19.05.2018 12:00 19,9 C 17,7 C 63 % 1017,3 hPa 0,0 l/m 13,3 km/h (3 Bft) O-NO 1,00 h 0,483 mm 4,4 UV-I 855 W/m 12,7 C 17,6 C 17,7 km/h (3 Bft) 98,63 %
19.05.2018 13:00 20,5 C 18,1 C 62 % 1016,6 hPa 0,0 l/m 13,2 km/h (3 Bft) O-NO 0,92 h 0,559 mm 4,1 UV-I 790 W/m 12,9 C 18,4 C 18,2 km/h (3 Bft) 99,36 %
19.05.2018 14:00 20,8 C 18,3 C 55 % 1016,2 hPa 0,0 l/m 14,7 km/h (3 Bft) O 0,58 h 0,508 mm 3,3 UV-I 621 W/m 11,5 C 18,4 C 20,2 km/h (4 Bft) 97,92 %
19.05.2018 15:00 20,7 C 18,7 C 55 % 1016,1 hPa 0,0 l/m 16,8 km/h (3 Bft) O-NO 0,62 h 0,482 mm 2,1 UV-I 450 W/m 11,4 C 17,8 C 22,5 km/h (4 Bft) 97,17 %
19.05.2018 16:00 20,2 C 18,9 C 54 % 1015,9 hPa 0,0 l/m 15,1 km/h (3 Bft) O-NO 0,83 h 0,381 mm 1,5 UV-I 396 W/m 10,6 C 17,6 C 20,2 km/h (4 Bft) 97,23 %
19.05.2018 17:00 20,1 C 18,9 C 51 % 1015,8 hPa 0,0 l/m 12,9 km/h (3 Bft) O 1,00 h 0,331 mm 0,9 UV-I 294 W/m 9,6 C 17,9 C 17,3 km/h (3 Bft) 99,24 %
19.05.2018 18:00 19,5 C 18,9 C 57 % 1015,7 hPa 0,0 l/m 11,0 km/h (2 Bft) O-NO 0,98 h 0,254 mm 0,5 UV-I 206 W/m 10,6 C 17,9 C 15,4 km/h (3 Bft) 98,01 %
19.05.2018 19:00 18,5 C 18,9 C 64 % 1016,0 hPa 0,0 l/m 9,6 km/h (2 Bft) NO 0,00 h 0,177 mm 0,0 UV-I 62 W/m 11,4 C 17,2 C 13,3 km/h (3 Bft) 98,27 %
19.05.2018 20:00 16,7 C 18,4 C 69 % 1016,6 hPa 0,0 l/m 6,0 km/h (2 Bft) O 0,00 h 0,077 mm 0,0 UV-I 10 W/m 10,9 C 16,5 C 8,2 km/h (2 Bft) 96,80 %
19.05.2018 21:00 15,5 C 18,3 C 74 % 1017,2 hPa 0,0 l/m 11,0 km/h (2 Bft) O-NO 0,00 h 0,025 mm 0,0 UV-I 0 W/m 11,0 C 13,4 C 15,5 km/h (3 Bft) 99,30 %
19.05.2018 22:00 14,6 C 18,3 C 75 % 1017,8 hPa 0,0 l/m 13,4 km/h (3 Bft) O 0,00 h 0,051 mm 0,0 UV-I 0 W/m 10,2 C 11,4 C 17,6 km/h (3 Bft) 97,72 %
19.05.2018 23:00 14,1 C 18,3 C 81 % 1017,9 hPa 0,0 l/m 8,6 km/h (2 Bft) O-NO 0,00 h 0,051 mm 0,0 UV-I 0 W/m 10,8 C 12,8 C 12,4 km/h (3 Bft) 97,83 %
20.05.2018 00:00 13,9 C 18,1 C 83 % 1018,1 hPa 0,0 l/m 7,1 km/h (2 Bft) NO 0,00 h 0,000 mm 0,0 UV-I 0 W/m 11,1 C 13,3 C 10,3 km/h (2 Bft) 96,62 %
20.05.2018 01:00 13,1 C 17,8 C 88 % 1018,2 hPa 0,0 l/m 7,6 km/h (2 Bft) NO 0,00 h 0,025 mm 0,0 UV-I 0 W/m 11,1 C 12,2 C 10,8 km/h (2 Bft) 99,52 %
20.05.2018 02:00 12,9 C 17,8 C 89 % 1018,1 hPa 0,0 l/m 8,7 km/h (2 Bft) O-NO 0,00 h 0,026 mm 0,0 UV-I 0 W/m 11,2 C 11,5 C 12,9 km/h (3 Bft) 97,70 %
20.05.2018 03:00 12,9 C 17,8 C 88 % 1017,9 hPa 0,2 l/m 10,7 km/h (2 Bft) O-NO 0,00 h 0,025 mm 0,0 UV-I 0 W/m 10,9 C 10,5 C 16,0 km/h (3 Bft) 97,63 %
20.05.2018 04:00 12,6 C 17,8 C 87 % 1017,8 hPa 0,0 l/m 11,5 km/h (2 Bft) O-NO 0,00 h 0,026 mm 0,0 UV-I 0 W/m 10,6 C 9,9 C 17,1 km/h (3 Bft) 97,09 %
20.05.2018 05:00 12,5 C 17,5 C 87 % 1017,9 hPa 0,0 l/m 13,5 km/h (3 Bft) O-NO 0,05 h 0,025 mm 0,0 UV-I 13 W/m 10,3 C 8,8 C 18,8 km/h (3 Bft) 98,85 %
20.05.2018 06:00 12,3 C 17,2 C 84 % 1018,4 hPa 0,0 l/m 16,1 km/h (3 Bft) O-NO 0,00 h 0,025 mm 0,0 UV-I 54 W/m 9,6 C 7,5 C 21,5 km/h (4 Bft) 97,55 %
20.05.2018 07:00 12,9 C 17,2 C 78 % 1018,9 hPa 0,0 l/m 18,8 km/h (3 Bft) O 0,70 h 0,051 mm 0,6 UV-I 268 W/m 9,1 C 7,5 C 24,9 km/h (4 Bft) 97,26 %
20.05.2018 08:00 14,2 C 17,2 C 72 % 1019,1 hPa 0,0 l/m 20,7 km/h (4 Bft) O 1,00 h 0,178 mm 1,0 UV-I 361 W/m 9,2 C 8,5 C 27,6 km/h (4 Bft) 97,98 %
20.05.2018 09:00 15,7 C 17,2 C 65 % 1019,0 hPa 0,0 l/m 22,2 km/h (4 Bft) O-NO 0,97 h 0,254 mm 1,8 UV-I 538 W/m 9,2 C 10,3 C 29,1 km/h (5 Bft) 98,50 %
20.05.2018 10:00 17,3 C 17,3 C 57 % 1019,0 hPa 0,0 l/m 25,1 km/h (4 Bft) O-NO 1,00 h 0,381 mm 2,9 UV-I 717 W/m 8,8 C 11,7 C 33,1 km/h (5 Bft) 98,05 %
20.05.2018 11:00 18,4 C 17,8 C 49 % 1019,0 hPa 0,0 l/m 24,2 km/h (4 Bft) O-NO 1,00 h 0,533 mm 3,4 UV-I 717 W/m 7,4 C 13,3 C 31,5 km/h (5 Bft) 96,25 %
20.05.2018 12:00 18,5 C 17,8 C 43 % 1018,9 hPa 0,0 l/m 22,0 km/h (4 Bft) O 0,72 h 0,559 mm 2,9 UV-I 537 W/m 5,8 C 13,9 C 29,1 km/h (5 Bft) 98,54 %
20.05.2018 13:00 20,0 C 17,8 C 39 % 1018,4 hPa 0,0 l/m 21,5 km/h (4 Bft) O-NO 0,93 h 0,457 mm 3,8 UV-I 713 W/m 5,6 C 16,0 C 29,0 km/h (5 Bft) 98,20 %
20.05.2018 14:00 20,9 C 18,3 C 37 % 1018,0 hPa 0,0 l/m 19,8 km/h (4 Bft) O 1,00 h 0,610 mm 3,6 UV-I 675 W/m 5,7 C 17,4 C 26,5 km/h (4 Bft) 99,20 %
20.05.2018 15:00 21,2 C 18,3 C 39 % 1017,5 hPa 0,0 l/m 20,1 km/h (4 Bft) O 0,98 h 0,559 mm 2,8 UV-I 594 W/m 6,6 C 17,8 C 26,8 km/h (4 Bft) 96,87 %
20.05.2018 16:00 21,8 C 18,3 C 39 % 1017,1 hPa 0,0 l/m 20,8 km/h (4 Bft) O 1,00 h 0,533 mm 2,1 UV-I 575 W/m 7,3 C 18,4 C 27,8 km/h (4 Bft) 96,83 %
20.05.2018 17:00 21,1 C 18,8 C 43 % 1017,0 hPa 0,0 l/m 19,3 km/h (3 Bft) O 0,52 h 0,534 mm 1,1 UV-I 353 W/m 8,1 C 17,7 C 26,8 km/h (4 Bft) 97,81 %
20.05.2018 18:00 19,4 C 18,4 C 49 % 1017,0 hPa 0,0 l/m 18,9 km/h (3 Bft) O 0,42 h 0,355 mm 0,5 UV-I 152 W/m 8,2 C 15,7 C 26,0 km/h (4 Bft) 99,55 %
20.05.2018 19:00 18,6 C 18,3 C 55 % 1017,0 hPa 0,0 l/m 18,0 km/h (3 Bft) O 0,82 h 0,229 mm 0,0 UV-I 117 W/m 9,3 C 14,9 C 24,3 km/h (4 Bft) 98,14 %
20.05.2018 20:00 16,9 C 18,3 C 60 % 1017,2 hPa 0,0 l/m 12,5 km/h (3 Bft) O-SO 0,45 h 0,178 mm 0,0 UV-I 21 W/m 9,2 C 14,4 C 17,3 km/h (3 Bft) 97,55 %
20.05.2018 21:00 15,7 C 18,3 C 66 % 1017,6 hPa 0,0 l/m 10,8 km/h (2 Bft) O 0,00 h 0,076 mm 0,0 UV-I 0 W/m 9,4 C 13,6 C 14,8 km/h (3 Bft) 97,21 %
20.05.2018 22:00 14,3 C 17,8 C 73 % 1017,6 hPa 0,0 l/m 6,2 km/h (2 Bft) O 0,00 h 0,051 mm 0,0 UV-I 0 W/m 9,5 C 14,0 C 9,0 km/h (2 Bft) 99,62 %
20.05.2018 23:00 13,1 C 17,8 C 79 % 1017,5 hPa 0,0 l/m 7,3 km/h (2 Bft) O 0,00 h 0,025 mm 0,0 UV-I 0 W/m 9,6 C 12,5 C 10,4 km/h (2 Bft) 98,00 %
Min-Datum _ 15.05.18 17.05.18 20.05.18 14.05.18 - 15.05.18 - - - - - 20.05.18 15.05.18 15.05.18 16.05.18
_ Min-Zeit 22:02 05:41 13:56 02:53 - 18:40 - - - - - 12:36 07:29 18:40 00:02
Minimum _ 9,4 C 15,6 C 34 % 1003,5 hPa - 0,0 km/h (0 Bft) - - - - - 3,9 C 1,9 C 0,0 km/h (0 Bft) 10,00 %
Max-Datum _ 20.05.18 14.05.18 16.05.18 20.05.18 16.05.18 14.05.18 - 19.05.18 20.05.18 20.05.18 18.05.18 19.05.18 19.05.18 14.05.18 14.05.18
_ Max-Zeit 16:42 00:00 07:46 10:58 07:22 14:36 - 05:35 14:02 13:46 13:16 13:19 13:55 14:34 00:00
Maximum _ 22,1 C 20,6 C 95 % 1019,2 hPa 2,4 l/m 41,0 km/h
O-NO (6 Bft)
- 0,08 h 0,610 mm 4,9 UV-I 1083 W/m 14,6 C 21,0 C 53,1 km/h
O-NO (7 Bft)
100,00 %
Durchschnitt _ 14,4 C 17,4 C 78 % 1012,9 hPa #9,8 l/m 12,2 km/h (3 Bft) O #36:35 h #23,293 mm 1,7 UV-I 265 W/m 10,3 C 11,9 C 17,0 km/h (3 Bft) 97,85 %